Time,TemperatureF,DewpointF,PressureIn,WindDirection,WindDirectionDegrees,WindSpeedMPH,WindSpeedGustMPH,Humidity,HourlyPrecipIn,Conditions,Clouds,dailyrainin,SoftwareType,DateUTC
2013-03-06 00:02:00,28.0,27.0,29.54,North,0,0.0,2.0,96,0.00,,,0.32,,2013-03-06 05:02:00,
2013-03-06 00:11:00,28.0,27.0,29.54,North,0,0.0,1.0,96,0.00,,,0.32,,2013-03-06 05:11:00,
2013-03-06 00:22:00,28.0,27.0,29.54,North,0,0.0,1.0,96,0.00,,,0.32,,2013-03-06 05:22:00,
2013-03-06 00:32:00,28.0,27.0,29.54,North,0,0.0,0.0,96,0.00,,,0.32,,2013-03-06 05:32:00,
2013-03-06 00:42:00,28.0,27.0,29.54,North,0,0.0,0.0,96,0.00,,,0.32,,2013-03-06 05:42:00,
2013-03-06 00:52:00,28.0,27.0,29.53,North,0,0.0,1.0,96,0.00,,,0.32,,2013-03-06 05:52:00,
2013-03-06 01:02:00,28.0,27.0,29.54,North,0,0.0,0.0,96,0.00,,,0.32,,2013-03-06 06:02:00,
2013-03-06 01:11:00,28.0,27.0,29.54,North,0,0.0,0.0,96,0.00,,,0.32,,2013-03-06 06:11:00,
2013-03-06 01:22:00,28.0,27.0,29.54,North,0,0.0,1.0,96,0.00,,,0.32,,2013-03-06 06:22:00,
2013-03-06 01:32:00,28.0,27.0,29.54,North,0,0.0,3.0,96,0.00,,,0.32,,2013-03-06 06:32:00,
2013-03-06 01:42:00,28.0,27.0,29.54,North,0,0.0,3.0,96,0.00,,,0.32,,2013-03-06 06:42:00,
2013-03-06 01:52:00,28.0,27.0,29.54,North,0,0.0,2.0,96,0.00,,,0.32,,2013-03-06 06:52:00,
2013-03-06 02:01:00,28.0,27.0,29.54,North,0,0.0,1.0,96,0.00,,,0.32,,2013-03-06 07:01:00,
2013-03-06 02:11:00,28.0,27.0,29.54,North,0,0.0,1.0,96,0.00,,,0.32,,2013-03-06 07:11:00,
2013-03-06 02:22:00,28.0,27.0,29.54,North,0,0.0,1.0,96,0.00,,,0.32,,2013-03-06 07:22:00,
2013-03-06 02:32:00,28.0,27.0,29.54,WSW,248,2.0,11.0,96,0.00,,,0.32,,2013-03-06 07:32:00,
2013-03-06 02:42:00,28.0,27.0,29.54,WSW,248,2.0,11.0,96,0.00,,,0.32,,2013-03-06 07:42:00,
2013-03-06 02:52:00,28.0,27.0,29.54,WSW,248,2.0,11.0,96,0.00,,,0.32,,2013-03-06 07:52:00,
2013-03-06 03:01:00,26.0,25.0,29.53,WNW,283,6.0,19.0,95,0.00,,,0.32,,2013-03-06 08:01:00,
2013-03-06 03:11:00,26.0,25.0,29.53,WNW,283,6.0,19.0,95,0.00,,,0.32,,2013-03-06 08:11:00,
2013-03-06 03:21:00,26.0,25.0,29.52,NW,312,3.0,16.0,95,0.00,,,0.32,,2013-03-06 08:21:00,
2013-03-06 03:32:00,26.0,25.0,29.52,NW,325,5.0,18.0,95,0.00,,,0.32,,2013-03-06 08:32:00,
2013-03-06 03:42:00,26.0,25.0,29.52,NW,325,5.0,18.0,95,0.00,,,0.32,,2013-03-06 08:42:00,
2013-03-06 03:52:00,25.0,24.0,29.50,WNW,294,8.0,17.0,95,0.00,,,0.32,,2013-03-06 08:52:00,
2013-03-06 04:02:00,25.0,24.0,29.50,WNW,294,8.0,17.0,95,0.00,,,0.32,,2013-03-06 09:02:00,
2013-03-06 04:12:00,25.0,24.0,29.50,WNW,294,8.0,17.0,95,0.00,,,0.32,,2013-03-06 09:12:00,
2013-03-06 04:21:00,25.0,24.0,29.51,WNW,298,6.0,21.0,94,0.00,,,0.32,,2013-03-06 09:21:00,
2013-03-06 04:32:00,24.0,23.0,29.51,WNW,285,10.0,23.0,94,0.00,,,0.32,,2013-03-06 09:32:00,
2013-03-06 04:42:00,24.0,23.0,29.51,WNW,285,10.0,23.0,94,0.00,,,0.32,,2013-03-06 09:42:00,
2013-03-06 04:52:00,24.0,22.0,29.52,NW,305,9.0,21.0,93,0.00,,,0.32,,2013-03-06 09:52:00,
2013-03-06 05:02:00,24.0,22.0,29.52,West,269,5.0,16.0,91,0.00,,,0.32,,2013-03-06 10:02:00,
2013-03-06 05:11:00,24.0,22.0,29.52,West,269,5.0,16.0,91,0.00,,,0.32,,2013-03-06 10:11:00,
2013-03-06 05:22:00,24.0,22.0,29.52,West,269,5.0,16.0,91,0.00,,,0.32,,2013-03-06 10:22:00,
2013-03-06 05:32:00,24.0,22.0,29.52,WNW,291,10.0,22.0,90,0.00,,,0.32,,2013-03-06 10:32:00,
2013-03-06 05:42:00,24.0,22.0,29.52,WNW,291,10.0,22.0,90,0.00,,,0.32,,2013-03-06 10:42:00,
2013-03-06 05:52:00,23.0,21.0,29.52,WNW,300,8.0,17.0,91,0.00,,,0.32,,2013-03-06 10:52:00,
2013-03-06 06:02:00,23.0,21.0,29.52,NW,321,10.0,21.0,92,0.00,,,0.32,,2013-03-06 11:02:00,
2013-03-06 06:11:00,23.0,21.0,29.52,NW,321,10.0,21.0,92,0.00,,,0.32,,2013-03-06 11:11:00,
2013-03-06 06:22:00,23.0,21.0,29.52,NW,314,7.0,18.0,92,0.00,,,0.32,,2013-03-06 11:22:00,
2013-03-06 06:32:00,23.0,21.0,29.53,NW,316,8.0,27.0,93,0.00,,,0.32,,2013-03-06 11:32:00,
2013-03-06 06:42:00,23.0,21.0,29.53,NW,316,8.0,27.0,93,0.00,,,0.32,,2013-03-06 11:42:00,
2013-03-06 06:52:00,22.0,20.0,29.54,West,278,9.0,20.0,92,0.00,,,0.32,,2013-03-06 11:52:00,
2013-03-06 07:02:00,22.0,20.0,29.54,West,278,9.0,20.0,92,0.00,,,0.32,,2013-03-06 12:02:00,
2013-03-06 07:11:00,22.0,20.0,29.54,West,278,9.0,20.0,92,0.00,,,0.32,,2013-03-06 12:11:00,
2013-03-06 07:22:00,22.0,20.0,29.54,West,275,6.0,20.0,91,0.00,,,0.32,,2013-03-06 12:22:00,
2013-03-06 07:33:00,22.0,20.0,29.55,West,279,8.0,22.0,91,0.00,,,0.32,,2013-03-06 12:33:00,
2013-03-06 07:42:00,22.0,20.0,29.55,West,279,8.0,22.0,91,0.00,,,0.32,,2013-03-06 12:42:00,
2013-03-06 07:52:00,22.0,20.0,29.55,West,279,8.0,22.0,91,0.00,,,0.32,,2013-03-06 12:52:00,
2013-03-06 08:02:00,21.0,18.0,29.57,West,265,10.0,22.0,89,0.00,,,0.32,,2013-03-06 13:02:00,
2013-03-06 08:12:00,21.0,18.0,29.57,West,265,10.0,22.0,89,0.00,,,0.32,,2013-03-06 13:12:00,
2013-03-06 08:22:00,21.0,19.0,29.57,WSW,252,7.0,23.0,90,0.00,,,0.32,,2013-03-06 13:22:00,
2013-03-06 08:32:00,22.0,20.0,29.57,WNW,298,8.0,23.0,90,0.00,,,0.32,,2013-03-06 13:32:00,
2013-03-06 08:42:00,22.0,20.0,29.57,WNW,298,8.0,23.0,90,0.00,,,0.32,,2013-03-06 13:42:00,
2013-03-06 08:52:00,22.0,20.0,29.58,NNW,336,9.0,22.0,90,0.00,,,0.32,,2013-03-06 13:52:00,
2013-03-06 09:02:00,22.0,19.0,29.59,West,273,10.0,23.0,89,0.00,,,0.32,,2013-03-06 14:02:00,
2013-03-06 09:11:00,22.0,19.0,29.59,West,273,10.0,23.0,89,0.00,,,0.32,,2013-03-06 14:11:00,
2013-03-06 09:22:00,22.0,20.0,29.59,WNW,296,9.0,32.0,90,0.00,,,0.32,,2013-03-06 14:22:00,
2013-03-06 09:32:00,22.0,20.0,29.59,WNW,296,9.0,32.0,90,0.00,,,0.32,,2013-03-06 14:32:00,
2013-03-06 09:42:00,22.0,20.0,29.59,WNW,296,9.0,32.0,90,0.00,,,0.32,,2013-03-06 14:42:00,
2013-03-06 09:53:00,23.0,20.0,29.60,WSW,243,7.0,19.0,88,0.00,,,0.32,,2013-03-06 14:53:00,
2013-03-06 10:02:00,23.0,20.0,29.60,WSW,243,7.0,19.0,88,0.00,,,0.32,,2013-03-06 15:02:00,
2013-03-06 10:12:00,23.0,20.0,29.60,WSW,243,7.0,19.0,88,0.00,,,0.32,,2013-03-06 15:12:00,
2013-03-06 10:22:00,23.0,20.0,29.63,West,272,3.0,16.0,88,0.00,,,0.32,,2013-03-06 15:22:00,
2013-03-06 10:32:00,23.0,20.0,29.65,WSW,256,12.0,34.0,87,0.00,,,0.32,,2013-03-06 15:32:00,
2013-03-06 10:42:00,23.0,20.0,29.65,WSW,256,12.0,34.0,87,0.00,,,0.32,,2013-03-06 15:42:00,
2013-03-06 10:52:00,23.0,20.0,29.64,WSW,257,9.0,26.0,88,0.00,,,0.32,,2013-03-06 15:52:00,
2013-03-06 11:02:00,23.0,20.0,29.64,WSW,257,9.0,26.0,88,0.00,,,0.32,,2013-03-06 16:02:00,
2013-03-06 11:12:00,23.0,20.0,29.64,WSW,257,9.0,26.0,88,0.00,,,0.32,,2013-03-06 16:12:00,
2013-03-06 11:21:00,25.0,22.0,29.66,SSE,157,1.0,10.0,87,0.00,,,0.32,,2013-03-06 16:21:00,
2013-03-06 11:32:00,25.0,22.0,29.66,SSE,157,1.0,10.0,87,0.00,,,0.32,,2013-03-06 16:32:00,
2013-03-06 11:42:00,25.0,22.0,29.66,SSE,157,1.0,10.0,87,0.00,,,0.32,,2013-03-06 16:42:00,
2013-03-06 11:52:00,26.0,22.0,29.67,SW,215,4.0,15.0,85,0.00,,,0.32,,2013-03-06 16:52:00,
2013-03-06 12:01:00,27.0,23.0,29.68,South,175,4.0,11.0,85,0.00,,,0.32,,2013-03-06 17:01:00,
2013-03-06 12:11:00,27.0,23.0,29.68,South,175,4.0,11.0,85,0.00,,,0.32,,2013-03-06 17:11:00,
2013-03-06 12:22:00,27.0,23.0,29.68,WSW,245,3.0,13.0,85,0.00,,,0.32,,2013-03-06 17:22:00,
2013-03-06 12:32:00,27.0,23.0,29.70,NNW,344,4.0,15.0,86,0.00,,,0.32,,2013-03-06 17:32:00,
2013-03-06 12:42:00,27.0,23.0,29.70,NNW,344,4.0,15.0,86,0.00,,,0.32,,2013-03-06 17:42:00,
2013-03-06 12:52:00,28.0,24.0,29.70,WNW,288,10.0,26.0,84,0.00,,,0.32,,2013-03-06 17:52:00,
2013-03-06 13:02:00,28.0,24.0,29.70,South,177,3.0,28.0,83,0.00,,,0.32,,2013-03-06 18:02:00,
2013-03-06 13:29:00,28.0,24.0,29.70,South,177,3.0,28.0,83,0.00,,,0.32,,2013-03-06 18:29:00,
2013-03-06 13:42:00,28.0,24.0,29.70,South,177,3.0,28.0,83,0.00,,,0.32,,2013-03-06 18:42:00,
2013-03-06 13:53:00,27.0,23.0,29.71,South,172,3.0,22.0,85,0.00,,,0.32,,2013-03-06 18:53:00,
2013-03-06 14:02:00,27.0,23.0,29.71,NW,315,5.0,18.0,85,0.00,,,0.32,,2013-03-06 19:02:00,
2013-03-06 14:11:00,27.0,23.0,29.71,NW,315,5.0,18.0,85,0.00,,,0.32,,2013-03-06 19:11:00,
2013-03-06 14:22:00,27.0,23.0,29.72,NNE,13,2.0,12.0,86,0.00,,,0.32,,2013-03-06 19:22:00,
2013-03-06 14:32:00,27.0,23.0,29.74,WNW,287,2.0,11.0,85,0.00,,,0.32,,2013-03-06 19:32:00,
2013-03-06 14:43:00,27.0,23.0,29.74,WNW,287,2.0,11.0,85,0.00,,,0.32,,2013-03-06 19:43:00,
2013-03-06 14:52:00,27.0,24.0,29.75,NW,307,5.0,17.0,87,0.00,,,0.32,,2013-03-06 19:52:00,
2013-03-06 15:02:00,27.0,24.0,29.76,West,267,8.0,17.0,87,0.00,,,0.32,,2013-03-06 20:02:00,
2013-03-06 15:12:00,27.0,24.0,29.76,West,267,8.0,17.0,87,0.00,,,0.32,,2013-03-06 20:12:00,
2013-03-06 15:22:00,27.0,24.0,29.76,West,267,8.0,17.0,87,0.00,,,0.32,,2013-03-06 20:22:00,
2013-03-06 15:32:00,27.0,24.0,29.79,West,278,9.0,21.0,87,0.00,,,0.32,,2013-03-06 20:32:00,
2013-03-06 15:43:00,27.0,24.0,29.79,West,278,9.0,21.0,87,0.00,,,0.32,,2013-03-06 20:43:00,
2013-03-06 15:53:00,27.0,24.0,29.80,WNW,300,7.0,18.0,88,0.00,,,0.32,,2013-03-06 20:53:00,
2013-03-06 16:02:00,27.0,24.0,29.80,North,349,11.0,26.0,87,0.00,,,0.32,,2013-03-06 21:02:00,
2013-03-06 16:12:00,27.0,24.0,29.80,North,349,11.0,26.0,87,0.00,,,0.32,,2013-03-06 21:12:00,
2013-03-06 16:22:00,27.0,24.0,29.80,North,349,11.0,26.0,87,0.00,,,0.32,,2013-03-06 21:22:00,
2013-03-06 16:32:00,27.0,24.0,29.83,West,281,4.0,20.0,87,0.00,,,0.32,,2013-03-06 21:32:00,
2013-03-06 16:42:00,27.0,24.0,29.83,West,281,4.0,20.0,87,0.00,,,0.32,,2013-03-06 21:42:00,
2013-03-06 16:52:00,27.0,24.0,29.83,West,281,4.0,20.0,87,0.00,,,0.32,,2013-03-06 21:52:00,
2013-03-06 17:02:00,27.0,24.0,29.85,NW,304,10.0,19.0,88,0.00,,,0.32,,2013-03-06 22:02:00,
2013-03-06 17:12:00,27.0,24.0,29.85,NW,304,10.0,19.0,88,0.00,,,0.32,,2013-03-06 22:12:00,
2013-03-06 17:22:00,26.0,23.0,29.86,West,264,5.0,22.0,88,0.00,,,0.31,,2013-03-06 22:22:00,
2013-03-06 17:32:00,26.0,23.0,29.87,ENE,69,2.0,12.0,89,0.00,,,0.30,,2013-03-06 22:32:00,
2013-03-06 17:42:00,26.0,23.0,29.87,ENE,69,2.0,12.0,89,0.00,,,0.30,,2013-03-06 22:42:00,
2013-03-06 17:52:00,26.0,23.0,29.87,ESE,117,4.0,12.0,89,0.00,,,0.29,,2013-03-06 22:52:00,
2013-03-06 18:01:00,26.0,23.0,29.87,WNW,297,12.0,18.0,89,0.00,,,0.27,,2013-03-06 23:01:00,
2013-03-06 18:11:00,26.0,23.0,29.87,WNW,297,12.0,18.0,89,0.00,,,0.27,,2013-03-06 23:11:00,
2013-03-06 18:22:00,26.0,23.0,29.88,North,357,3.0,19.0,89,0.00,,,0.24,,2013-03-06 23:22:00,
2013-03-06 18:32:00,26.0,23.0,29.89,WNW,290,10.0,20.0,89,0.00,,,0.23,,2013-03-06 23:32:00,
2013-03-06 18:42:00,26.0,23.0,29.89,WNW,290,10.0,20.0,89,0.00,,,0.23,,2013-03-06 23:42:00,
2013-03-06 18:52:00,26.0,23.0,29.90,SW,229,5.0,27.0,89,0.00,,,0.23,,2013-03-06 23:52:00,
2013-03-06 19:02:00,26.0,23.0,29.90,SW,229,5.0,27.0,89,0.00,,,0.23,,2013-03-07 00:02:00,
2013-03-06 19:11:00,26.0,23.0,29.90,SW,229,5.0,27.0,89,0.00,,,0.23,,2013-03-07 00:11:00,
2013-03-06 19:21:00,26.0,23.0,29.91,West,262,3.0,13.0,89,0.00,,,0.23,,2013-03-07 00:21:00,
2013-03-06 19:32:00,26.0,23.0,29.92,NW,305,5.0,20.0,89,0.00,,,0.23,,2013-03-07 00:32:00,
2013-03-06 19:42:00,26.0,23.0,29.92,NW,305,5.0,20.0,89,0.00,,,0.23,,2013-03-07 00:42:00,
2013-03-06 19:52:00,26.0,23.0,29.92,NE,39,2.0,8.0,90,0.00,,,0.23,,2013-03-07 00:52:00,
2013-03-06 20:02:00,26.0,23.0,29.93,SW,214,4.0,22.0,89,0.00,,,0.20,,2013-03-07 01:02:00,
2013-03-06 20:11:00,26.0,23.0,29.93,SW,214,4.0,22.0,89,0.00,,,0.20,,2013-03-07 01:11:00,
2013-03-06 20:21:00,26.0,23.0,29.93,SW,214,4.0,22.0,89,0.00,,,0.20,,2013-03-07 01:21:00,
2013-03-06 20:32:00,26.0,23.0,29.93,North,359,3.0,14.0,90,0.00,,,0.07,,2013-03-07 01:32:00,
2013-03-06 20:42:00,26.0,23.0,29.93,North,359,3.0,14.0,90,0.00,,,0.07,,2013-03-07 01:42:00,
2013-03-06 20:52:00,26.0,24.0,29.95,NNW,340,8.0,21.0,91,0.00,,,0.04,,2013-03-07 01:52:00,
2013-03-06 21:01:00,26.0,24.0,29.94,NW,323,8.0,20.0,91,0.00,,,0.02,,2013-03-07 02:01:00,
2013-03-06 21:11:00,26.0,24.0,29.94,NW,323,8.0,20.0,91,0.00,,,0.02,,2013-03-07 02:11:00,
2013-03-06 21:21:00,26.0,24.0,29.94,NW,323,8.0,20.0,91,0.00,,,0.02,,2013-03-07 02:21:00,
2013-03-06 21:32:00,26.0,24.0,29.96,NW,321,9.0,21.0,91,0.00,,,0.00,,2013-03-07 02:32:00,
2013-03-06 21:42:00,26.0,24.0,29.96,NW,321,9.0,21.0,91,0.00,,,0.00,,2013-03-07 02:42:00,
2013-03-06 21:52:00,26.0,24.0,29.96,NW,321,9.0,21.0,91,0.00,,,0.00,,2013-03-07 02:52:00,
2013-03-06 22:02:00,26.0,24.0,29.96,North,11,3.0,19.0,91,0.00,,,0.00,,2013-03-07 03:02:00,
2013-03-06 22:11:00,26.0,24.0,29.96,WNW,296,1.0,10.0,91,0.00,,,0.00,,2013-03-07 03:11:00,
2013-03-06 22:22:00,26.0,24.0,29.96,WNW,296,1.0,10.0,91,0.00,,,0.00,,2013-03-07 03:22:00,
2013-03-06 22:32:00,26.0,24.0,29.97,East,99,1.0,11.0,91,0.00,,,0.00,,2013-03-07 03:32:00,
2013-03-06 22:42:00,26.0,24.0,29.97,East,99,1.0,11.0,91,0.00,,,0.00,,2013-03-07 03:42:00,
2013-03-06 22:52:00,26.0,24.0,29.97,NNW,342,2.0,11.0,91,0.00,,,0.00,,2013-03-07 03:52:00,
2013-03-06 23:02:00,26.0,24.0,29.98,NW,319,3.0,10.0,91,0.00,,,0.00,,2013-03-07 04:02:00,
2013-03-06 23:12:00,26.0,24.0,29.98,NW,319,3.0,10.0,91,0.00,,,0.00,,2013-03-07 04:12:00,
2013-03-06 23:22:00,26.0,24.0,29.98,WNW,290,5.0,15.0,91,0.00,,,0.00,,2013-03-07 04:22:00,
2013-03-06 23:32:00,26.0,23.0,29.97,NW,324,3.0,20.0,90,0.00,,,0.00,,2013-03-07 04:32:00,
2013-03-06 23:42:00,26.0,23.0,29.97,NW,324,3.0,20.0,90,0.00,,,0.00,,2013-03-07 04:42:00,
2013-03-06 23:52:00,26.0,23.0,29.97,WNW,297,2.0,14.0,90,0.00,,,0.00,,2013-03-07 04:52:00,